Weather in Novosarinskiy

Russia / Orenburg Oblast     51°29′01″N   57°54′10″E
temp.,
°C
wind,
m/s
gust,
m/s
humid.,
%
clouds,
%
prec.,
mm/h
press.,
hPa
HPBL,
m
28 september, tue
tue2823:00+2ne6895100 1.0 1009614
02:00+2ne5898100 0.9 1010498
05:00+2ne61098100 1.1 1010504
08:00+1ne6997100 0.1 1011589
11:00+1ne71094100 0.3 1013834
14:00+2ne71083100 0.1 10141082
17:00+2nne71295100 0.2 1016717
20:00+2ne81395100 0.1 1017888
29 september, wed
wed2923:00+2nne81396100 0.4 1018786
02:00+1nne7139580 0.2 1018795
05:000nne7148351 0.2 1020619
08:000nne7148313 0.0 1020616
11:00+4ne8117083 0.0 1021940
14:00+5nne7964100 0.0 10221168
17:00+5nne6865100 0.0 10221373
20:00+4nne486664 0.1 1023469
30 september, thu
thu3023:00+2n498185 0.1 1024264
02:00+2n498188 0.0 1024246
05:00+2n4882100 0.0 1025231
08:00+1n49815 0.0 1026249
11:00+6nne46575 0.0 1026890
14:00+7nne4543100 0.1 10261767
17:00+8n344191 0.1 10261663
20:00+5nw225279 0.0 102718
1 october, fri
fri123:00+3nw34589 0.0 102766
02:00+2nw35590 0.0 102865
05:00+1nw46660 0.0 102998
08:00+1wnw37635 0.0 1029146
11:00+6nw67475 0.0 10291082
14:00+9nw674155 0.0 10281496
17:00+9nw6751100 0.0 10281334
20:00+7nw5873100 0.0 1030734
2 october, sat
sat223:00+6wnw4780100 0.0 1030499
02:00+4wnw3692100 0.1 1031157
05:00+6wnw2389100 0.1 1031159
08:00+6wnw2390100 0.3 1031180
11:00+7wnw3588100 0.3 1031370
14:00+9wnw4479100 0.1 1031564
17:00+7wnw3691100 0.4 1031392
20:00+7wnw259397 0.1 1031233